Location: Aciu?a
(46.2833°N, 22.4500°E)
Time: 13:30:29
(UTC+00:00)

Cosmos 1455 - Pass Details

Date: 25 October 2021
Orbit: 496 x 519 km, 82.5° (Epoch: 06 December)

Event Time Altitude Azimuth Distance (km) Brightness Sun altitude
Rises 17:28:29 0° 185° (S) 2,620 5.8 -21.7°
Reaches altitude 10° 17:30:37 10° 185° (S) 1,735 4.9 -22.1°
Enters shadow 17:31:57 21° 184° (S) 1,193 4.0 -22.3°
